Location: Newton_East
(35.6670°N, 81.2000°W)
Time: 04:26:45
(UTC-04:00)

ISS - Visible Passes

Search period start: 05 August 2015 00:00
Search period end: 15 August 2015 00:00
Orbit: 401 x 403 km, 51.6° (Epoch: 04 August)

Date Brightness Start Highest point End Pass type
(mag) Time Alt. Az. Time Alt. Az. Time Alt. Az.
06 Aug -0.2 20:57:26 10° NW 20:59:05 13° NNW 21:00:41 10° N visible
11 Aug -0.1 23:01:14 10° N 23:01:27 11° N 23:01:27 11° N visible
13 Aug -0.4 22:50:28 10° NNW 22:51:25 15° N 22:51:25 15° N visible
14 Aug -0.8 21:57:57 10° N 21:59:38 13° NNE 22:00:09 13° NE visible
